Regional Weather Roundup
Issued by NWS Glasgow, MT

Home | Current Version | Previous Version | Text Only | Print | Product List | Glossary On
Versions: 1 2 3 4 5 6 7 8 9 10 11 12 13 14 15 16 17 18 19 20 21 22 23 24 25 26 27 28 29 30 31 32 33 34 35 36 37 38 39 40 41 42 43 44 45 46 47 48 49 50
000
ASUS45 KGGW 242015
RWRGGW
HOURLY REGIONAL WEATHER ROUNDUP FOR NORTHEAST MONTANA
NATIONAL WEATHER SERVICE GLASGOW MONTANA
200 PM MDT SUN JUL 24 2016

NOTE: "FAIR" INDICATES FEW OR NO CLOUDS BELOW 12,000 FEET WITH NO
SIGNIFICANT WEATHER AND/OR OBSTRUCTIONS TO VISISBILITY.

NORTHEAST MONTANA


CITY           SKY/WX    TMP DP  RH WIND       PRES   REMARKS
GLASGOW        SUNNY     87  48  25 W10       29.99F
PLENTYWOOD       N/A     80  47  31 W8          N/A
WOLF POINT     MOSUNNY   86  50  28 VRB5      30.00F
JORDAN           N/A     89  44  20 W13G23    30.02F
WINNETT          N/A     85  42  22 N3G12       N/A
SIDNEY         MOSUNNY   84  51  31 VRB3      30.03F
GLENDIVE       MOSUNNY   87  50  27 SW15      30.05
SCOBEY           N/A     97  67  37 CALM      30.02F HX 101
OPHEIM           N/A     77  48  36 S5        29.79F

FORT PECK REPORTS


CITY           SKY/WX    TMP DP  RH WIND       PRES   REMARKS
FORT PECK        N/A     84  54  35 SE5         N/A
THE PINES        N/A     88  44  21 SW8         N/A

SOUTHEAST MONTANA


CITY           SKY/WX    TMP DP  RH WIND       PRES   REMARKS
BILLINGS       MOSUNNY   85  39  19 CALM      30.08F
MILES CITY     SUNNY     89  43  20 E8        30.03F
BAKER          SUNNY     84  46  26 E5        30.09F
LIVINGSTON     SUNNY     85  36  17 W6        30.11F

CENTRAL MONTANA


CITY           SKY/WX    TMP DP  RH WIND       PRES   REMARKS
HAVRE          SUNNY     83  43  24 MISG      30.01F
LEWISTOWN      SUNNY     79  44  28 N7        30.11F
GREAT FALLS    SUNNY     82  33  17 W12G32    30.08F
CUT BANK       SUNNY     79  40  24 VRB5      30.06F
HELENA         SUNNY     83  35  18 NE8       30.09F
BUTTE          SUNNY     77  31  18 NE7       30.19F
BOZEMAN        SUNNY     79  40  24 VRB5      30.14F

WESTERN MONTANA


CITY           SKY/WX    TMP DP  RH WIND       PRES   REMARKS
MISSOULA       SUNNY     79  37  22 W5        30.11F
KALISPELL      NOT AVBL

NORTH DAKOTA


CITY           SKY/WX    TMP DP  RH WIND       PRES   REMARKS
WILLISTON      SUNNY     83  51  33 NW6       30.02F
DICKINSON      SUNNY     81  50  33 NW8       30.07S
MINOT          SUNNY     83  54  36 W17G29    29.99S
BISMARCK       SUNNY     83  55  38 NW13G21   30.03F

SOUTHERN SASKATCHEWAN


CITY           SKY/WX    TMP DP  RH WIND       PRES   REMARKS
REGINA         MOSUNNY   75  55  50 NW13      29.99F
ESTEVAN        MOSUNNY   77  57  50 NW12G24   30.01S
SWIFT CURRENT  MOSUNNY   75  57  53 SE6       30.01F




USA.gov is the U.S. government's official web portal to all federal, state and local government web resources and services.